Showing default

COSMOS 2205 (GLONASS), 22058

Orbit data source: Space-Track

COSMOS 2205 (GLONASS), 22058 is a payload satellite owned by VVS (CIS) in MEO that was launched on Thu, 30 Jul 1992 UTC via a PROTON-K/DM-2 launch vehicle from the Tyuratam Missile And Space Complex (TTMTR). Payload-class satellites include a variety of spacecraft equipped with specific instruments for various scientific and technological missions. These include communications satellites like Starlink; space stations such as the ISS; scientific satellites like the Hubble; Earth observation satellites from companies like Planet Labs, Umbra, and HawkEye 360; GPS; miniature CubeSats for education and research; and military/defense satellites.

Loading next visibility...
Identifier
22058, 1992-047C
Orbit
MEO
Country
Flag of CISCIS
Related business
Manufacturer
Polyot
Mission
Non-operational Defense Navigation
Bus & Motor
URAGAN, Unknown motor
Mass
1,300 kg wet, ~1,200 kg dry
Launch date (UTC)
1992-07-30 (33 years ago)
Launch vehicle
PROTON-K/DM-2
Launch site
Tyuratam Missile And Space Complex (TTMTR)
Object type
Payload
Rocket body
Debris
Shape & HBR
Cyl + 2 Pan, 4.2 m
Radar Cross Section
14.707 m², Large (>1 m²)

Expand to show TLE details & history
Last TLE update: 2 days ago

TLE from 2 days ago
0 COSMOS 2205 (GLONASS)
1 22058U 92047C   25347.23060191 -.00000066  00000-0  00000-0 0  9995
2 22058  64.2768 308.7889 0019250 226.4341 219.6015  2.13103092259577
Epoch: 2025-12-13T05:32Z
TLE epoch observation values (Epoch: 2025-12-13T05:32:04.005Z)
Latitude
64.0137°
Longitude
-135.71338°
Altitude
19,178.027 km
Speed
3.948 km/s
True Right ascension
01h 57m 51s
True Declination
63° 58' 33"
Sunlit
Object was in daylight at epoch
Visualization orbit readout
Latitude
Unknown
Longitude
Unknown
Altitude
Unknown
Speed
Unknown
Apparent Right ascension
Unknown
Apparent Declination
Unknown
Sunlit
N/A
Visualization observer readout
Local Sidereal Time
15:09:07
Azimuth
Unknown
Elevation
Unknown
Doppler factor
Unknown
Orbital elements
Apogee altitude
19,178.543 km
Perigee altitude
19,080.338 km
Semi-major axis
25,507.578 km
Eccentricity
0.00193
Inclination
64.2768°
RAAN
308.7889°
Arg. of periapsis
226.4341°
True anomaly
219.46115°
Mean anomaly
219.6015°
Eccentric anomaly
219.5313°
Mean motion
0.53277 °/min
Orbital period
675.71 mins
BSTAR
0
Loading maneuver chart data...
Computing Atmospheric mass density...
Loading historical data...
Loading historical data...
Loading historical data...
Loading historical data...
Loading historical data...
Loading historical data...
Loading historical data...

Documentation

Showing up to 5 results
|